Year,Month,Day,Hour,Minute,Value (Times are PST for temperature in C)
2014,01,31,00,00,4.40
2014,01,31,00,01,4.40
2014,01,31,00,02,4.40
2014,01,31,00,03,4.40
2014,01,31,00,04,4.40
2014,01,31,00,05,4.40
2014,01,31,00,06,4.40
2014,01,31,00,07,4.40
2014,01,31,00,08,4.50
2014,01,31,00,09,4.50
2014,01,31,00,10,4.50
2014,01,31,00,11,4.50
2014,01,31,00,12,4.50
2014,01,31,00,13,4.50
2014,01,31,00,14,4.50
2014,01,31,00,15,4.50
2014,01,31,00,16,4.50
2014,01,31,00,17,4.50
2014,01,31,00,18,4.40
2014,01,31,00,19,4.40
2014,01,31,00,20,4.40
2014,01,31,00,21,4.40
2014,01,31,00,22,4.40
2014,01,31,00,23,4.40
2014,01,31,00,24,4.40
2014,01,31,00,25,4.40
2014,01,31,00,26,4.40
2014,01,31,00,27,4.40
2014,01,31,00,28,4.40
2014,01,31,00,29,4.40
2014,01,31,00,30,4.40
2014,01,31,00,31,4.40
2014,01,31,00,32,4.30
2014,01,31,00,33,4.30
2014,01,31,00,34,4.30
2014,01,31,00,35,4.30
2014,01,31,00,36,4.30
2014,01,31,00,37,4.30
2014,01,31,00,38,4.30
2014,01,31,00,39,4.30
2014,01,31,00,40,4.30
2014,01,31,00,41,4.30
2014,01,31,00,42,4.30
2014,01,31,00,43,4.30
2014,01,31,00,44,4.30
2014,01,31,00,45,4.30
2014,01,31,00,46,4.30
2014,01,31,00,47,4.30
2014,01,31,00,48,4.30
2014,01,31,00,49,4.30
2014,01,31,00,50,4.30
2014,01,31,00,51,4.30
2014,01,31,00,52,4.30
2014,01,31,00,53,4.30
2014,01,31,00,54,4.40
2014,01,31,00,55,4.40
2014,01,31,00,56,4.40
2014,01,31,00,57,4.40
2014,01,31,00,58,4.40
2014,01,31,00,59,4.40
2014,01,31,01,00,4.40
2014,01,31,01,01,4.40
2014,01,31,01,02,4.40
2014,01,31,01,03,4.40
2014,01,31,01,04,4.40
2014,01,31,01,05,4.40
2014,01,31,01,06,4.40
2014,01,31,01,07,4.40
2014,01,31,01,08,4.40
2014,01,31,01,09,4.40
2014,01,31,01,10,4.40
2014,01,31,01,11,4.40
2014,01,31,01,12,4.40
2014,01,31,01,13,4.30
2014,01,31,01,14,4.30
2014,01,31,01,15,4.30
2014,01,31,01,16,4.30
2014,01,31,01,17,4.30
2014,01,31,01,18,4.30
2014,01,31,01,19,4.30
2014,01,31,01,20,4.20
2014,01,31,01,21,4.20
2014,01,31,01,22,4.20
2014,01,31,01,23,4.20
2014,01,31,01,24,4.20
2014,01,31,01,25,4.20
2014,01,31,01,26,4.20
2014,01,31,01,27,4.20
2014,01,31,01,28,4.20
2014,01,31,01,29,4.20
2014,01,31,01,30,4.20
2014,01,31,01,31,4.20
2014,01,31,01,32,4.20
2014,01,31,01,33,4.20
2014,01,31,01,34,4.20
2014,01,31,01,35,4.20
2014,01,31,01,36,4.20
2014,01,31,01,37,4.20
2014,01,31,01,38,4.20
2014,01,31,01,39,4.20
2014,01,31,01,40,4.20
2014,01,31,01,41,4.10
2014,01,31,01,42,4.10
2014,01,31,01,43,4.10
2014,01,31,01,44,4.10
2014,01,31,01,45,4.10
2014,01,31,01,46,4.10
2014,01,31,01,47,4.10
2014,01,31,01,48,4.00
2014,01,31,01,49,4.00
2014,01,31,01,50,4.00
2014,01,31,01,51,4.00
2014,01,31,01,52,4.00
2014,01,31,01,53,4.00
2014,01,31,01,54,4.00
2014,01,31,01,55,4.00
2014,01,31,01,56,4.00
2014,01,31,01,57,4.00
2014,01,31,01,58,4.00
2014,01,31,01,59,4.00
2014,01,31,21,06,-0.10
2014,01,31,21,07,-0.10
2014,01,31,21,08,-0.10
2014,01,31,21,09,-0.10
2014,01,31,21,10,-0.10
2014,01,31,21,11,-0.20
2014,01,31,21,12,-0.20
2014,01,31,21,13,-0.20
2014,01,31,21,14,-0.20
2014,01,31,21,15,-0.20
2014,01,31,21,16,-0.30
2014,01,31,21,17,-0.30
2014,01,31,21,18,-0.30
2014,01,31,21,19,-0.30
2014,01,31,21,20,-0.30
2014,01,31,21,21,-0.30
2014,01,31,21,22,-0.30
2014,01,31,21,23,-0.30
2014,01,31,21,24,-0.30
2014,01,31,21,25,-0.30
2014,01,31,21,26,-0.30
2014,01,31,21,27,-0.30
2014,01,31,21,28,-0.20
2014,01,31,21,29,-0.20
2014,01,31,21,30,-0.20
2014,01,31,21,31,-0.20
2014,01,31,21,32,-0.20
2014,01,31,21,33,-0.20
2014,01,31,21,34,-0.20
2014,01,31,21,35,-0.20
2014,01,31,21,36,-0.20
2014,01,31,21,37,-0.20
2014,01,31,21,38,-0.20
2014,01,31,21,39,-0.20
2014,01,31,21,40,-0.20
2014,01,31,21,41,-0.10
2014,01,31,21,42,-0.10
2014,01,31,21,43,-0.10
2014,01,31,21,44,-0.10
2014,01,31,21,45,-0.10
2014,01,31,21,46,-0.10
2014,01,31,21,47,-0.10
2014,01,31,21,48,-0.10
2014,01,31,21,49,-0.10
2014,01,31,21,50,-0.10
2014,01,31,21,51,-0.10
2014,01,31,21,52,-0.10
2014,01,31,21,53,-0.10
2014,01,31,21,54,-0.10
2014,01,31,21,55,-0.10
2014,01,31,21,56,-0.10
2014,01,31,21,57,-0.10
2014,01,31,21,58,-0.10
2014,01,31,21,59,-0.10
2014,01,31,22,00,-0.10
2014,01,31,22,01,-0.10
2014,01,31,22,02,-0.10
2014,01,31,22,03,-0.10
2014,01,31,22,04,-0.10
2014,01,31,22,05,-0.10
2014,01,31,22,06,-0.20
2014,01,31,22,07,-0.20
2014,01,31,22,08,-0.20
2014,01,31,22,09,-0.20
2014,01,31,22,10,-0.20
2014,01,31,22,11,-0.20
2014,01,31,22,12,-0.30
2014,01,31,22,13,-0.30
2014,01,31,22,14,-0.30
2014,01,31,22,15,-0.30
2014,01,31,22,16,-0.30
2014,01,31,22,17,-0.30
2014,01,31,22,18,-0.30
2014,01,31,22,19,-0.30
2014,01,31,22,20,-0.30
2014,01,31,22,21,-0.30
2014,01,31,22,22,-0.30
2014,01,31,22,23,-0.30
2014,01,31,22,24,-0.30
2014,01,31,22,25,-0.30
2014,01,31,22,26,-0.30
2014,01,31,22,27,-0.40
2014,01,31,22,28,-0.40
2014,01,31,22,29,-0.40
2014,01,31,22,30,-0.40
2014,01,31,22,31,-0.40
2014,01,31,22,32,-0.40
2014,01,31,22,33,-0.40
2014,01,31,22,34,-0.40
2014,01,31,22,35,-0.40
2014,01,31,22,36,-0.40
2014,01,31,22,37,-0.40
2014,01,31,22,38,-0.40
2014,01,31,22,39,-0.40
2014,01,31,22,40,-0.40
2014,01,31,22,41,-0.40
2014,01,31,22,42,-0.40
2014,01,31,22,43,-0.40
2014,01,31,22,44,-0.40
2014,01,31,22,45,-0.40
2014,01,31,22,46,-0.30
2014,01,31,22,47,-0.20
2014,01,31,22,48,-0.20
2014,01,31,22,49,-0.10
2014,01,31,22,50,-0.10
2014,01,31,22,51,0.00
2014,01,31,22,52,0.10
2014,01,31,22,53,0.10
2014,01,31,22,54,0.20
2014,01,31,22,55,0.20
2014,01,31,22,56,0.20
2014,01,31,22,57,0.30
2014,01,31,22,58,0.30
2014,01,31,22,59,0.30
2014,01,31,23,00,0.30
2014,01,31,23,01,0.30
2014,01,31,23,02,0.30
2014,01,31,23,03,0.30
2014,01,31,23,04,0.30
2014,01,31,23,05,0.30
2014,01,31,23,06,0.30
2014,01,31,23,07,0.30
2014,01,31,23,08,0.30
2014,01,31,23,09,0.30
2014,01,31,23,10,0.20
2014,01,31,23,11,0.20
2014,01,31,23,12,0.20
2014,01,31,23,13,0.20
2014,01,31,23,14,0.10
2014,01,31,23,15,0.10
2014,01,31,23,16,0.10
2014,01,31,23,17,0.00
2014,01,31,23,18,-0.10
2014,01,31,23,19,-0.10
2014,01,31,23,20,-0.10
2014,01,31,23,21,-0.20
2014,01,31,23,22,-0.30
2014,01,31,23,23,-0.30
2014,01,31,23,24,-0.40
2014,01,31,23,25,-0.40
2014,01,31,23,26,-0.40
2014,01,31,23,27,-0.40
2014,01,31,23,28,-0.40
2014,01,31,23,29,-0.40
2014,01,31,23,30,-0.40
2014,01,31,23,31,-0.60
2014,01,31,23,32,-0.60
2014,01,31,23,33,-0.60
2014,01,31,23,34,-0.60
2014,01,31,23,35,-0.60
2014,01,31,23,36,-0.60
2014,01,31,23,37,-0.60
2014,01,31,23,38,-0.60
2014,01,31,23,39,-0.60
2014,01,31,23,40,-0.70
2014,01,31,23,41,-0.70
2014,01,31,23,42,-0.70
2014,01,31,23,43,-0.80
2014,01,31,23,44,-0.80
2014,01,31,23,45,-0.80
2014,01,31,23,46,-0.90
2014,01,31,23,47,-0.90
2014,01,31,23,48,-0.90
2014,01,31,23,49,-0.90
2014,01,31,23,50,-1.00
2014,01,31,23,51,-1.10
2014,01,31,23,52,-1.10
2014,01,31,23,53,-1.10
2014,01,31,23,54,-1.10
2014,01,31,23,55,-1.10
2014,01,31,23,56,-1.10
2014,01,31,23,57,-1.20
2014,01,31,23,58,-1.20
2014,01,31,23,59,-1.20
